Location: Caltech
(34.1382°N, 118.1253°W)
Time: 06:29:21
(UTC-07:00)

AO-7 - Visible Passes

Search period start: 24 October 2014 00:00
Search period end: 02 November 2014 23:00
Orbit: 1440 x 1459 km, 101.5° (Epoch: 23 October)

Date Brightness Start Highest point End Pass type
(mag) Time Alt. Az. Time Alt. Az. Time Alt. Az.
24 Oct ? 03:27:50 10° ENE 03:30:39 12° E 03:33:28 10° ESE visible
24 Oct ? 05:16:02 10° NNE 05:24:24 80° ESE 05:32:45 10° SSW visible
25 Oct ? 04:17:01 10° NE 04:24:17 33° E 04:31:30 10° SSE visible
25 Oct ? 06:09:16 10° N 06:17:09 49° WNW 06:25:02 10° SW visible
26 Oct ? 05:09:08 10° NNE 05:17:29 73° ESE 05:25:48 10° S visible
27 Oct ? 04:10:19 10° NE 04:17:18 29° E 04:24:14 10° SSE visible
27 Oct ? 06:02:16 10° N 06:10:16 54° WNW 06:18:17 10° SW visible
28 Oct ? 05:02:15 10° NNE 05:10:33 66° ESE 05:18:49 10° S visible
29 Oct ? 04:03:39 10° NE 04:10:19 26° E 04:16:55 10° SSE visible
29 Oct ? 05:55:16 10° N 06:03:24 60° WNW 06:11:31 10° SW visible
30 Oct ? 04:55:23 10° NNE 05:03:37 60° ESE 05:11:48 10° S visible
31 Oct ? 03:57:02 10° NE 04:03:19 23° E 04:09:33 10° SE visible
31 Oct ? 05:48:18 10° N 05:56:31 66° WNW 06:04:44 10° SSW visible
01 Nov ? 04:48:32 10° NNE 04:56:40 54° ESE 05:04:46 10° S visible
01 Nov ? 06:42:03 10° N 06:48:59 31° WNW 06:55:56 10° WSW visible
02 Nov ? 02:50:29 10° NE 02:56:19 21° E 03:02:06 10° SE visible
02 Nov ? 04:41:20 10° NNE 04:49:37 72° WNW 04:57:54 10° SSW visible
02 Nov ? 17:37:04 10° W 17:37:55 10° W 17:38:46 10° W visible
